Location: Aalen
(48.8330°N, 10.1000°E)
Time: 16:02:08
(UTC+02:00)

BEESAT 3 - Visible Passes

Search period start: 01 April 2023 00:00
Search period end: 11 April 2023 00:00
Orbit: 410 x 435 km, 64.9° (Epoch: 30 March)

Date Brightness Start Highest point End Pass type
(mag) Time Alt. Az. Time Alt. Az. Time Alt. Az.
01 Apr ? 03:54:04 22° NNE 03:54:04 22° NNE 03:55:31 10° NNE visible
01 Apr ? 05:27:25 10° NW 05:28:33 11° NNW 05:29:41 10° N visible
02 Apr ? 03:09:31 13° NE 03:09:31 13° NE 03:09:53 10° NE visible
02 Apr ? 04:42:33 16° NNW 04:42:33 16° NNW 04:44:45 10° N visible
03 Apr ? 03:57:46 19° N 03:57:46 19° N 03:59:17 10° NNE visible
04 Apr ? 03:12:47 15° NNE 03:12:47 15° NNE 03:13:28 10° NNE visible
05 Apr ? 04:00:34 14° NNW 04:00:34 14° NNW 04:01:56 10° N visible
06 Apr ? 03:15:09 14° N 03:15:09 14° N 03:15:58 10° NNE visible
07 Apr ? 02:29:32 11° NNE 02:29:32 11° NNE 02:29:38 10° NNE visible
08 Apr ? 03:16:39 12° NNW 03:16:39 12° NNW 03:17:20 10° N visible
09 Apr ? 02:30:35 11° N 02:30:35 11° N 02:30:53 10° NNE visible
